SJV611 SCIP-SEGS

Flight info

Callsign SJV611
Flight time N/A
Altitude 35000
Route IPA DCT 22S105W 15S100W 08S095W/N0454F370 DCT UDILA DCT GLV
Aircraft A320/M-SDFGHIRW/EB1

Departure

Time N/A
Airport Mataveri International Airport (SCIP)

Arrival

Time 2026-04-29 06:31
Airport Seymour Galapagos Ecological Airport (SEGS)
Time Latitude Longitude Altitude Speed Heading
2026-04-29 03:46 -17.28356 -101.57749 35814 ft 479 kts 34°
2026-04-29 03:46 -17.25587 -101.55809 35815 ft 479 kts 33°
2026-04-29 03:47 -17.20038 -101.51925 35815 ft 479 kts 34°
2026-04-29 03:47 -17.14498 -101.48044 35815 ft 479 kts 34°
2026-04-29 03:48 -17.08956 -101.44166 35814 ft 479 kts 33°
2026-04-29 03:48 -17.03403 -101.40293 35814 ft 479 kts 33°
2026-04-29 03:49 -17.00677 -101.38388 35793 ft 462 kts 34°
2026-04-29 03:49 -16.98022 -101.36531 35790 ft 458 kts 34°
2026-04-29 03:49 -16.95403 -101.34699 35491 ft 457 kts 34°
2026-04-29 03:49 -16.92761 -101.32854 35146 ft 457 kts 33°
2026-04-29 03:50 -16.90115 -101.31014 34968 ft 457 kts 33°
2026-04-29 03:50 -16.87467 -101.29174 35015 ft 461 kts 33°
2026-04-29 03:50 -16.82934 -101.26018 35011 ft 472 kts 33°
2026-04-29 03:51 -16.77458 -101.22201 35007 ft 474 kts 33°
2026-04-29 03:51 -16.71962 -101.18382 35015 ft 475 kts 33°
2026-04-29 03:52 -16.66459 -101.14554 35014 ft 475 kts 33°
2026-04-29 03:52 -16.60963 -101.10725 35011 ft 475 kts 33°
2026-04-29 03:53 -16.55457 -101.06904 35018 ft 476 kts 33°
2026-04-29 03:53 -16.49945 -101.03079 35015 ft 475 kts 33°
2026-04-29 03:54 -16.44433 -100.99251 35017 ft 475 kts 33°
2026-04-29 03:54 -16.38909 -100.95435 35013 ft 475 kts 33°
2026-04-29 03:55 -16.33443 -100.91648 35012 ft 475 kts 33°
2026-04-29 03:55 -16.27942 -100.87832 35011 ft 475 kts 33°
2026-04-29 03:56 -16.22439 -100.84019 35012 ft 475 kts 33°
2026-04-29 03:56 -16.16915 -100.80204 35012 ft 475 kts 33°
2026-04-29 03:57 -16.11394 -100.76399 35018 ft 475 kts 33°
2026-04-29 03:57 -16.05880 -100.72603 35011 ft 475 kts 33°
2026-04-29 03:58 -16.00362 -100.68796 35014 ft 475 kts 33°
2026-04-29 03:58 -15.94857 -100.64986 35012 ft 475 kts 33°
2026-04-29 03:59 -15.89369 -100.61208 35013 ft 475 kts 33°
2026-04-29 03:59 -15.83847 -100.57409 35014 ft 475 kts 33°
2026-04-29 04:00 -15.78327 -100.53615 35014 ft 475 kts 33°
2026-04-29 04:00 -15.72811 -100.49829 35014 ft 475 kts 33°
2026-04-29 04:01 -15.67300 -100.46033 35013 ft 475 kts 33°
2026-04-29 04:01 -15.61785 -100.42246 35016 ft 475 kts 33°
2026-04-29 04:02 -15.56270 -100.38468 35010 ft 475 kts 33°
2026-04-29 04:02 -15.50755 -100.34693 35009 ft 475 kts 33°
2026-04-29 04:03 -15.45267 -100.30932 35012 ft 475 kts 33°
2026-04-29 04:03 -15.39753 -100.27152 35013 ft 475 kts 33°
2026-04-29 04:04 -15.34237 -100.23373 35011 ft 475 kts 33°
2026-04-29 04:04 -15.28718 -100.19594 35013 ft 475 kts 33°
2026-04-29 04:05 -15.23194 -100.15823 35016 ft 475 kts 33°
2026-04-29 04:05 -15.17665 -100.12050 35016 ft 475 kts 33°
2026-04-29 04:06 -15.12140 -100.08286 35016 ft 475 kts 33°
2026-04-29 04:06 -15.06618 -100.04522 35017 ft 476 kts 33°
2026-04-29 04:07 -15.01084 -100.00753 35018 ft 476 kts 33°
2026-04-29 04:07 -14.95608 -99.96895 35020 ft 476 kts 35°
2026-04-29 04:08 -14.90254 -99.92872 35018 ft 476 kts 36°
2026-04-29 04:08 -14.84893 -99.88826 35019 ft 476 kts 36°
2026-04-29 04:09 -14.79516 -99.84839 35023 ft 476 kts 35°
2026-04-29 04:09 -14.74137 -99.80901 35026 ft 476 kts 35°
2026-04-29 04:10 -14.68733 -99.76947 35020 ft 476 kts 35°
2026-04-29 04:10 -14.63337 -99.72977 35020 ft 476 kts 35°
2026-04-29 04:11 -14.57946 -99.69003 35021 ft 476 kts 35°
2026-04-29 04:11 -14.52560 -99.65040 35021 ft 476 kts 35°
2026-04-29 04:12 -14.47169 -99.61077 35023 ft 476 kts 35°
2026-04-29 04:12 -14.41779 -99.57117 35018 ft 476 kts 35°
2026-04-29 04:13 -14.36343 -99.53131 35018 ft 476 kts 35°
2026-04-29 04:13 -14.30961 -99.49183 35022 ft 475 kts 35°
2026-04-29 04:14 -14.25563 -99.45220 35020 ft 475 kts 35°
2026-04-29 04:14 -14.20167 -99.41271 35020 ft 475 kts 35°
2026-04-29 04:15 -14.14779 -99.37328 35019 ft 475 kts 35°
2026-04-29 04:15 -14.09386 -99.33378 35016 ft 476 kts 35°
2026-04-29 04:16 -14.03987 -99.29429 35021 ft 476 kts 35°
2026-04-29 04:16 -13.98580 -99.25484 35018 ft 476 kts 35°
2026-04-29 04:17 -13.93205 -99.21555 35020 ft 476 kts 35°
2026-04-29 04:17 -13.87808 -99.17609 35020 ft 476 kts 35°
2026-04-29 04:18 -13.82395 -99.13662 35021 ft 476 kts 35°
2026-04-29 04:18 -13.76995 -99.09728 35019 ft 476 kts 35°
2026-04-29 04:19 -13.71598 -99.05783 35020 ft 476 kts 35°
2026-04-29 04:19 -13.66184 -99.01839 35024 ft 476 kts 35°
2026-04-29 04:20 -13.60774 -98.97910 35020 ft 475 kts 35°
2026-04-29 04:20 -13.55366 -98.93985 35017 ft 475 kts 35°
2026-04-29 04:21 -13.49992 -98.90078 35016 ft 475 kts 35°
2026-04-29 04:21 -13.44592 -98.86144 35016 ft 475 kts 35°
2026-04-29 04:22 -13.39154 -98.82186 35016 ft 475 kts 35°
2026-04-29 04:22 -13.33784 -98.78293 35015 ft 475 kts 35°
2026-04-29 04:23 -13.28384 -98.74373 35019 ft 475 kts 35°
2026-04-29 04:23 -13.22975 -98.70454 35015 ft 475 kts 35°
2026-04-29 04:24 -13.18446 -98.67181 35015 ft 475 kts 35°
2026-04-29 04:24 -13.13040 -98.63270 35019 ft 475 kts 35°
2026-04-29 04:25 -13.07666 -98.59373 35018 ft 475 kts 35°
2026-04-29 04:25 -13.02227 -98.55439 35014 ft 475 kts 35°
2026-04-29 04:26 -12.96818 -98.51526 35015 ft 475 kts 35°
2026-04-29 04:26 -12.91410 -98.47616 35017 ft 475 kts 35°
2026-04-29 04:27 -12.86034 -98.43732 35014 ft 475 kts 35°
2026-04-29 04:27 -12.80628 -98.39829 35017 ft 475 kts 35°
2026-04-29 04:28 -12.75188 -98.35904 35013 ft 475 kts 35°
2026-04-29 04:28 -12.69813 -98.32020 35020 ft 475 kts 35°
2026-04-29 04:29 -12.64393 -98.28117 35018 ft 475 kts 35°
2026-04-29 04:29 -12.58976 -98.24221 35015 ft 475 kts 35°
2026-04-29 04:30 -12.53571 -98.20326 35013 ft 475 kts 35°
2026-04-29 04:31 -12.45450 -98.14483 35014 ft 475 kts 35°
2026-04-29 04:31 -12.40039 -98.10593 35011 ft 475 kts 35°
2026-04-29 04:32 -12.34628 -98.06702 35015 ft 475 kts 35°
2026-04-29 04:32 -12.29213 -98.02806 35014 ft 475 kts 35°
2026-04-29 04:33 -12.23827 -97.98947 35013 ft 475 kts 35°
2026-04-29 04:33 -12.18407 -97.95061 35017 ft 475 kts 35°
2026-04-29 04:34 -12.12993 -97.91177 35010 ft 475 kts 35°
2026-04-29 04:34 -12.07577 -97.87301 35009 ft 475 kts 35°
2026-04-29 04:35 -12.02165 -97.83424 35013 ft 475 kts 35°
2026-04-29 04:35 -11.96756 -97.79542 35008 ft 475 kts 35°
2026-04-29 04:36 -11.91344 -97.75657 35010 ft 475 kts 35°
2026-04-29 04:36 -11.85930 -97.71784 35015 ft 475 kts 35°
2026-04-29 04:37 -11.80518 -97.67922 35008 ft 475 kts 35°
2026-04-29 04:37 -11.75107 -97.64054 35011 ft 475 kts 35°
2026-04-29 04:38 -11.69696 -97.60184 35006 ft 475 kts 35°
2026-04-29 04:38 -11.64279 -97.56317 35013 ft 475 kts 35°
2026-04-29 04:39 -11.58898 -97.52476 35007 ft 475 kts 35°
2026-04-29 04:39 -11.53474 -97.48615 35012 ft 475 kts 35°
2026-04-29 04:40 -11.48059 -97.44751 35006 ft 475 kts 35°
2026-04-29 04:40 -11.42635 -97.40882 35011 ft 475 kts 35°
2026-04-29 04:41 -11.37220 -97.37022 35007 ft 475 kts 35°
2026-04-29 04:41 -11.31832 -97.33187 35012 ft 475 kts 35°
2026-04-29 04:42 -11.26411 -97.29329 35011 ft 475 kts 35°
2026-04-29 04:42 -11.20990 -97.25476 35009 ft 475 kts 35°
2026-04-29 04:43 -11.15567 -97.21620 35011 ft 475 kts 35°
2026-04-29 04:43 -11.10143 -97.17760 35010 ft 475 kts 35°
2026-04-29 04:44 -11.04719 -97.13904 35008 ft 475 kts 35°
2026-04-29 04:44 -10.99300 -97.10053 35006 ft 475 kts 35°
2026-04-29 04:45 -10.93873 -97.06208 35012 ft 475 kts 34°
2026-04-29 04:45 -10.88446 -97.02363 35004 ft 475 kts 35°
2026-04-29 04:46 -10.83021 -96.98521 35013 ft 475 kts 35°
2026-04-29 04:46 -10.77598 -96.94678 35011 ft 475 kts 35°
2026-04-29 04:47 -10.72180 -96.90828 35008 ft 475 kts 35°
2026-04-29 04:47 -10.66754 -96.86990 35011 ft 475 kts 34°
2026-04-29 04:48 -10.61358 -96.83171 35013 ft 475 kts 35°
2026-04-29 04:48 -10.55927 -96.79323 35010 ft 475 kts 35°
2026-04-29 04:49 -10.50495 -96.75477 35012 ft 475 kts 34°
2026-04-29 04:49 -10.45063 -96.71643 35009 ft 475 kts 34°
2026-04-29 04:50 -10.39626 -96.67809 35012 ft 475 kts 34°
2026-04-29 04:50 -10.34188 -96.63966 35013 ft 475 kts 35°
2026-04-29 04:51 -10.28763 -96.60136 35008 ft 475 kts 34°
2026-04-29 04:51 -10.23352 -96.56324 35009 ft 475 kts 34°
2026-04-29 04:52 -10.17927 -96.52488 35010 ft 475 kts 34°
2026-04-29 04:52 -10.12462 -96.48632 35012 ft 475 kts 34°
2026-04-29 04:53 -10.07030 -96.44809 35013 ft 475 kts 34°
2026-04-29 04:53 -10.01594 -96.40977 35010 ft 475 kts 34°
2026-04-29 04:54 -9.96163 -96.37145 35015 ft 475 kts 34°
2026-04-29 04:54 -9.90760 -96.33343 35013 ft 475 kts 34°
2026-04-29 04:55 -9.85324 -96.29526 35019 ft 475 kts 34°
2026-04-29 04:55 -9.79884 -96.25707 35016 ft 475 kts 34°
2026-04-29 04:56 -9.74447 -96.21878 35012 ft 475 kts 34°
2026-04-29 04:56 -9.69017 -96.18058 35013 ft 475 kts 34°
2026-04-29 04:57 -9.63577 -96.14235 35013 ft 475 kts 34°
2026-04-29 04:57 -9.59046 -96.11060 35017 ft 475 kts 34°
2026-04-29 04:58 -9.53599 -96.07241 35015 ft 475 kts 34°
2026-04-29 04:58 -9.48161 -96.03425 35016 ft 475 kts 34°
2026-04-29 04:59 -9.42722 -95.99604 35020 ft 475 kts 34°
2026-04-29 04:59 -9.37278 -95.95786 35018 ft 475 kts 34°
2026-04-29 05:00 -9.31845 -95.91979 35017 ft 476 kts 34°
2026-04-29 05:00 -9.26394 -95.88167 35018 ft 476 kts 34°
2026-04-29 05:01 -9.20954 -95.84350 35022 ft 475 kts 34°
2026-04-29 05:01 -9.15507 -95.80541 35014 ft 475 kts 34°
2026-04-29 05:02 -9.10068 -95.76737 35014 ft 475 kts 34°
2026-04-29 05:02 -9.04659 -95.72956 35013 ft 475 kts 34°
2026-04-29 05:03 -8.99182 -95.69127 35015 ft 475 kts 34°
2026-04-29 05:03 -8.93773 -95.65333 35020 ft 475 kts 34°
2026-04-29 05:04 -8.88325 -95.61528 35017 ft 475 kts 34°
2026-04-29 05:04 -8.82881 -95.57729 35113 ft 476 kts 34°
2026-04-29 05:04 -8.80154 -95.55822 35498 ft 475 kts 34°
2026-04-29 05:05 -8.77442 -95.53928 35855 ft 474 kts 34°
2026-04-29 05:05 -8.74726 -95.52032 36188 ft 473 kts 34°
2026-04-29 05:05 -8.72020 -95.50145 36496 ft 473 kts 34°
2026-04-29 05:05 -8.69317 -95.48261 36774 ft 472 kts 34°
2026-04-29 05:06 -8.66614 -95.46379 36980 ft 473 kts 34°
2026-04-29 05:06 -8.61184 -95.42589 37009 ft 473 kts 34°
2026-04-29 05:07 -8.55769 -95.38809 37009 ft 473 kts 34°
2026-04-29 05:07 -8.50345 -95.35033 37009 ft 473 kts 34°
2026-04-29 05:08 -8.44969 -95.31285 37009 ft 473 kts 34°
2026-04-29 05:08 -8.39538 -95.27498 37010 ft 473 kts 34°
2026-04-29 05:09 -8.34118 -95.23730 37012 ft 473 kts 34°
2026-04-29 05:09 -8.28691 -95.19968 37014 ft 473 kts 34°
2026-04-29 05:10 -8.23268 -95.16187 37015 ft 473 kts 34°
2026-04-29 05:10 -8.17849 -95.12407 37016 ft 473 kts 34°
2026-04-29 05:11 -8.12426 -95.08638 37017 ft 473 kts 34°
2026-04-29 05:11 -8.06996 -95.04873 37018 ft 473 kts 34°
2026-04-29 05:12 -8.01578 -95.01111 37018 ft 473 kts 34°
2026-04-29 05:12 -7.96203 -94.97278 37019 ft 473 kts 36°
2026-04-29 05:13 -7.90936 -94.93281 37019 ft 473 kts 37°
2026-04-29 05:13 -7.85689 -94.89265 37020 ft 473 kts 37°
2026-04-29 05:14 -7.80413 -94.85276 37020 ft 473 kts 37°
2026-04-29 05:14 -7.75113 -94.81310 37020 ft 473 kts 36°
2026-04-29 05:15 -7.69814 -94.77353 37020 ft 473 kts 36°
2026-04-29 05:15 -7.64567 -94.73417 37020 ft 473 kts 37°
2026-04-29 05:16 -7.59279 -94.69445 37019 ft 473 kts 37°
2026-04-29 05:16 -7.53991 -94.65482 37018 ft 473 kts 36°
2026-04-29 05:17 -7.48704 -94.61528 37017 ft 473 kts 37°
2026-04-29 05:17 -7.43376 -94.57544 37018 ft 473 kts 37°
2026-04-29 05:18 -7.38101 -94.53587 37019 ft 473 kts 37°
2026-04-29 05:18 -7.32828 -94.49637 37021 ft 474 kts 37°
2026-04-29 05:19 -7.27532 -94.45673 37021 ft 474 kts 36°
2026-04-29 05:19 -7.22204 -94.41696 37022 ft 474 kts 36°
2026-04-29 05:20 -7.16942 -94.37767 37022 ft 473 kts 37°
2026-04-29 05:20 -7.11648 -94.33806 37021 ft 473 kts 37°
2026-04-29 05:21 -7.06356 -94.29847 37021 ft 473 kts 36°
2026-04-29 05:21 -7.01061 -94.25888 37021 ft 473 kts 37°
2026-04-29 05:22 -6.95774 -94.21941 37021 ft 473 kts 36°
2026-04-29 05:22 -6.90472 -94.17989 37020 ft 473 kts 36°
2026-04-29 05:23 -6.85203 -94.14066 37020 ft 473 kts 36°
2026-04-29 05:23 -6.79915 -94.10112 37020 ft 473 kts 37°
2026-04-29 05:24 -6.74612 -94.06156 37020 ft 473 kts 36°
2026-04-29 05:24 -6.69322 -94.02208 37019 ft 473 kts 36°
2026-04-29 05:25 -6.64033 -93.98267 37019 ft 473 kts 36°
2026-04-29 05:25 -6.58745 -93.94319 37019 ft 473 kts 36°
2026-04-29 05:26 -6.53446 -93.90374 37019 ft 473 kts 36°
2026-04-29 05:26 -6.48145 -93.86425 37018 ft 473 kts 36°
2026-04-29 05:27 -6.42888 -93.82498 37018 ft 473 kts 37°
2026-04-29 05:27 -6.34937 -93.76588 37018 ft 473 kts 36°
2026-04-29 05:28 -6.29640 -93.72655 37017 ft 473 kts 36°
2026-04-29 05:28 -6.24348 -93.68712 37017 ft 473 kts 36°
2026-04-29 05:29 -6.19117 -93.64825 37017 ft 473 kts 36°
2026-04-29 05:29 -6.13819 -93.60890 37017 ft 473 kts 36°
2026-04-29 05:30 -6.08518 -93.56946 37016 ft 473 kts 36°
2026-04-29 05:30 -6.03225 -93.53002 37016 ft 473 kts 36°
2026-04-29 05:31 -5.98825 -93.49724 37016 ft 473 kts 36°
2026-04-29 05:31 -5.93537 -93.45794 37015 ft 473 kts 36°
2026-04-29 05:32 -5.88245 -93.41869 37015 ft 473 kts 36°
2026-04-29 05:32 -5.82941 -93.37932 37015 ft 473 kts 36°
2026-04-29 05:33 -5.77680 -93.34022 37014 ft 473 kts 36°
2026-04-29 05:33 -5.72379 -93.30098 37014 ft 473 kts 36°
2026-04-29 05:34 -5.67087 -93.26178 37014 ft 473 kts 36°
2026-04-29 05:34 -5.61792 -93.22243 37013 ft 473 kts 36°
2026-04-29 05:35 -5.56502 -93.18306 37013 ft 473 kts 36°
2026-04-29 05:35 -5.51216 -93.14383 37013 ft 473 kts 36°
2026-04-29 05:36 -5.45921 -93.10465 37012 ft 473 kts 36°
2026-04-29 05:36 -5.40652 -93.06566 37012 ft 473 kts 36°
2026-04-29 05:37 -5.35360 -93.02647 37012 ft 473 kts 36°
2026-04-29 05:37 -5.30067 -92.98722 37011 ft 473 kts 36°
2026-04-29 05:38 -5.24782 -92.94801 37011 ft 473 kts 36°
2026-04-29 05:38 -5.19483 -92.90884 37011 ft 473 kts 36°
2026-04-29 05:39 -5.14192 -92.86970 37010 ft 473 kts 36°
2026-04-29 05:39 -5.08900 -92.83052 37010 ft 473 kts 36°
2026-04-29 05:40 -5.03613 -92.79128 37009 ft 473 kts 36°
2026-04-29 05:40 -4.98281 -92.75186 37009 ft 473 kts 36°
2026-04-29 05:41 -4.92986 -92.71275 37009 ft 473 kts 36°
2026-04-29 05:41 -4.87698 -92.67365 37008 ft 472 kts 36°
2026-04-29 05:42 -4.82405 -92.63447 37008 ft 472 kts 36°
2026-04-29 05:42 -4.77117 -92.59535 37007 ft 472 kts 36°
2026-04-29 05:43 -4.71823 -92.55623 37007 ft 472 kts 36°
2026-04-29 05:43 -4.66537 -92.51707 37007 ft 472 kts 36°
2026-04-29 05:44 -4.61211 -92.47771 37007 ft 472 kts 36°
2026-04-29 05:44 -4.55919 -92.43865 37007 ft 472 kts 36°
2026-04-29 05:45 -4.50628 -92.39957 37007 ft 472 kts 36°
2026-04-29 05:45 -4.45325 -92.36041 37007 ft 472 kts 36°
2026-04-29 05:46 -4.40029 -92.32127 37007 ft 472 kts 36°
2026-04-29 05:46 -4.34732 -92.28223 37007 ft 473 kts 36°
2026-04-29 05:47 -4.29432 -92.24318 37008 ft 473 kts 36°
2026-04-29 05:47 -4.24143 -92.20404 37008 ft 473 kts 36°
2026-04-29 05:48 -4.18859 -92.16497 37008 ft 473 kts 36°
2026-04-29 05:48 -4.13555 -92.12587 37009 ft 473 kts 36°
2026-04-29 05:49 -4.08259 -92.08684 37009 ft 473 kts 36°
2026-04-29 05:49 -4.02961 -92.04785 37009 ft 473 kts 36°
2026-04-29 05:50 -3.97660 -92.00880 37010 ft 473 kts 36°
2026-04-29 05:50 -3.92363 -91.96964 37010 ft 473 kts 36°
2026-04-29 05:51 -3.87069 -91.93054 37011 ft 473 kts 36°
2026-04-29 05:51 -3.81760 -91.89145 37011 ft 473 kts 36°
2026-04-29 05:52 -3.76458 -91.85241 37011 ft 473 kts 36°
2026-04-29 05:52 -3.71152 -91.81328 37012 ft 473 kts 36°
2026-04-29 05:53 -3.65846 -91.77416 37012 ft 473 kts 36°
2026-04-29 05:53 -3.60549 -91.73514 37012 ft 473 kts 36°
2026-04-29 05:54 -3.55269 -91.69631 37013 ft 473 kts 36°
2026-04-29 05:54 -3.49965 -91.65731 37013 ft 473 kts 36°
2026-04-29 05:55 -3.44650 -91.61821 37013 ft 473 kts 36°
2026-04-29 05:55 -3.39236 -91.58091 37013 ft 472 kts 27°
2026-04-29 05:56 -3.33254 -91.55343 37011 ft 472 kts 24°
2026-04-29 05:56 -3.27253 -91.52639 37011 ft 473 kts 24°
2026-04-29 05:57 -3.21256 -91.49931 37012 ft 473 kts 24°
2026-04-29 05:57 -3.15249 -91.47222 37013 ft 473 kts 24°
2026-04-29 05:58 -3.09254 -91.44513 37014 ft 473 kts 24°
2026-04-29 05:58 -3.03249 -91.41795 37015 ft 473 kts 24°
2026-04-29 05:59 -2.97253 -91.39080 37015 ft 473 kts 24°
2026-04-29 05:59 -2.91256 -91.36369 37016 ft 473 kts 24°
2026-04-29 06:00 -2.85250 -91.33663 37016 ft 473 kts 24°
2026-04-29 06:00 -2.79250 -91.30955 37017 ft 473 kts 24°
2026-04-29 06:01 -2.73246 -91.28245 37017 ft 473 kts 24°
2026-04-29 06:01 -2.67239 -91.25531 37017 ft 473 kts 24°
2026-04-29 06:02 -2.61281 -91.22840 37018 ft 473 kts 24°
2026-04-29 06:02 -2.55281 -91.20128 37018 ft 473 kts 24°
2026-04-29 06:03 -2.49276 -91.17419 37018 ft 473 kts 24°
2026-04-29 06:03 -2.44247 -91.15154 37018 ft 473 kts 24°
2026-04-29 06:04 -2.38293 -91.12473 37019 ft 473 kts 24°
2026-04-29 06:04 -2.32286 -91.09771 37019 ft 473 kts 24°
2026-04-29 06:05 -2.26279 -91.07056 37019 ft 473 kts 24°
2026-04-29 06:05 -2.20274 -91.04345 37019 ft 473 kts 24°
2026-04-29 06:06 -2.14261 -91.01638 37020 ft 473 kts 24°
2026-04-29 06:06 -2.08258 -90.98928 37020 ft 473 kts 24°
2026-04-29 06:07 -2.02258 -90.96214 37020 ft 473 kts 24°
2026-04-29 06:07 -1.96255 -90.93504 37020 ft 473 kts 24°
2026-04-29 06:08 -1.90248 -90.90798 37020 ft 473 kts 24°
2026-04-29 06:08 -1.84241 -90.88089 37020 ft 473 kts 24°
2026-04-29 06:09 -1.78227 -90.85386 37020 ft 473 kts 24°
2026-04-29 06:09 -1.75257 -90.84048 36918 ft 463 kts 24°
2026-04-29 06:09 -1.72317 -90.82723 35993 ft 464 kts 24°
2026-04-29 06:10 -1.69357 -90.81391 34663 ft 468 kts 24°
2026-04-29 06:10 -1.66373 -90.80050 33296 ft 472 kts 24°
2026-04-29 06:10 -1.63372 -90.78696 31888 ft 475 kts 24°
2026-04-29 06:10 -1.60377 -90.77339 30721 ft 471 kts 24°
2026-04-29 06:11 -1.57399 -90.75991 29551 ft 466 kts 24°
2026-04-29 06:11 -1.54429 -90.74650 28452 ft 460 kts 24°
2026-04-29 06:11 -1.51526 -90.73342 27655 ft 456 kts 24°
2026-04-29 06:11 -1.48651 -90.72047 27093 ft 450 kts 24°
2026-04-29 06:12 -1.45819 -90.70771 26515 ft 445 kts 24°
2026-04-29 06:12 -1.42996 -90.69498 25947 ft 440 kts 24°
2026-04-29 06:12 -1.40257 -90.68263 25396 ft 436 kts 24°
2026-04-29 06:12 -1.37510 -90.67023 24866 ft 430 kts 24°
2026-04-29 06:13 -1.34793 -90.65796 24335 ft 425 kts 24°
2026-04-29 06:13 -1.32110 -90.64585 23840 ft 420 kts 24°
2026-04-29 06:13 -1.29466 -90.63394 23345 ft 415 kts 24°
2026-04-29 06:13 -1.26846 -90.62214 22862 ft 410 kts 24°
2026-04-29 06:14 -1.24256 -90.61051 22385 ft 406 kts 24°
2026-04-29 06:14 -1.21687 -90.59899 21907 ft 403 kts 24°
2026-04-29 06:14 -1.19143 -90.58755 21422 ft 399 kts 24°
2026-04-29 06:14 -1.16614 -90.57616 20933 ft 396 kts 24°
2026-04-29 06:15 -1.14103 -90.56483 20439 ft 393 kts 24°
2026-04-29 06:15 -1.11622 -90.55363 19931 ft 390 kts 24°
2026-04-29 06:15 -1.09158 -90.54253 19427 ft 387 kts 24°
2026-04-29 06:15 -1.06713 -90.53151 18908 ft 385 kts 24°
2026-04-29 06:16 -1.04248 -90.52039 18386 ft 382 kts 24°
2026-04-29 06:16 -1.01836 -90.50952 17869 ft 379 kts 24°
2026-04-29 06:16 -0.99438 -90.49874 17351 ft 376 kts 24°
2026-04-29 06:16 -0.97060 -90.48807 16831 ft 373 kts 24°
2026-04-29 06:17 -0.94705 -90.47748 16316 ft 370 kts 24°
2026-04-29 06:17 -0.92364 -90.46693 15798 ft 368 kts 24°
2026-04-29 06:17 -0.90039 -90.45643 15290 ft 365 kts 24°
2026-04-29 06:17 -0.87732 -90.44600 14783 ft 362 kts 24°
2026-04-29 06:18 -0.85454 -90.43573 14282 ft 360 kts 24°
2026-04-29 06:18 -0.83174 -90.42548 13763 ft 357 kts 24°
2026-04-29 06:18 -0.80932 -90.41541 13266 ft 354 kts 24°
2026-04-29 06:18 -0.78683 -90.40531 12760 ft 351 kts 24°
2026-04-29 06:19 -0.76465 -90.39534 12270 ft 349 kts 24°
2026-04-29 06:19 -0.74216 -90.38523 11762 ft 347 kts 24°
2026-04-29 06:19 -0.72020 -90.37533 11269 ft 346 kts 24°
2026-04-29 06:19 -0.69831 -90.36542 10780 ft 343 kts 24°
2026-04-29 06:20 -0.67664 -90.35560 10377 ft 339 kts 24°
2026-04-29 06:20 -0.65551 -90.34604 10247 ft 327 kts 24°
2026-04-29 06:20 -0.63376 -90.33622 10110 ft 316 kts 24°
2026-04-29 06:20 -0.61966 -90.32987 10022 ft 308 kts 24°
2026-04-29 06:21 -0.60077 -90.32137 9873 ft 300 kts 24°
2026-04-29 06:21 -0.58124 -90.31259 9479 ft 294 kts 24°
2026-04-29 06:21 -0.56262 -90.30424 8821 ft 293 kts 24°
2026-04-29 06:21 -0.54429 -90.29602 8279 ft 290 kts 24°
2026-04-29 06:22 -0.52585 -90.28775 7770 ft 285 kts 24°
2026-04-29 06:22 -0.50804 -90.27973 7319 ft 283 kts 24°
2026-04-29 06:22 -0.48994 -90.27232 6854 ft 280 kts 13°
2026-04-29 06:22 -0.47038 -90.27205 6384 ft 280 kts 345°
2026-04-29 06:23 -0.45325 -90.28103 5980 ft 280 kts 316°
2026-04-29 06:23 -0.44199 -90.29646 5562 ft 281 kts 296°
2026-04-29 06:23 -0.43337 -90.31382 5316 ft 276 kts 295°
2026-04-29 06:23 -0.42493 -90.33108 4967 ft 276 kts 295°
2026-04-29 06:24 -0.41636 -90.34857 4483 ft 281 kts 295°
2026-04-29 06:24 -0.40783 -90.36586 4304 ft 273 kts 296°
2026-04-29 06:24 -0.39953 -90.38259 4173 ft 264 kts 296°
2026-04-29 06:24 -0.39147 -90.39880 4046 ft 256 kts 296°
2026-04-29 06:25 -0.38370 -90.41446 3916 ft 247 kts 296°
2026-04-29 06:25 -0.37332 -90.42785 3780 ft 239 kts 327°
2026-04-29 06:25 -0.35788 -90.43231 3660 ft 229 kts 360°
2026-04-29 06:25 -0.34242 -90.43000 3546 ft 223 kts 18°
2026-04-29 06:26 -0.32857 -90.42314 3438 ft 222 kts 37°
2026-04-29 06:26 -0.31800 -90.41230 3317 ft 214 kts 58°
2026-04-29 06:26 -0.31223 -90.39899 3204 ft 205 kts 79°
2026-04-29 06:26 -0.31148 -90.38491 3096 ft 203 kts 99°
2026-04-29 06:27 -0.31555 -90.37156 2988 ft 201 kts 119°
2026-04-29 06:27 -0.32392 -90.36053 2890 ft 199 kts 140°
2026-04-29 06:27 -0.33494 -90.35220 2775 ft 197 kts 145°
2026-04-29 06:27 -0.34587 -90.34428 2537 ft 190 kts 145°
2026-04-29 06:28 -0.35639 -90.33665 2295 ft 183 kts 145°
2026-04-29 06:28 -0.36635 -90.32941 2053 ft 171 kts 145°
2026-04-29 06:28 -0.37580 -90.32254 1844 ft 159 kts 145°
2026-04-29 06:28 -0.38456 -90.31618 1630 ft 153 kts 145°
2026-04-29 06:29 -0.39305 -90.31002 1437 ft 147 kts 145°
2026-04-29 06:29 -0.40123 -90.30408 1245 ft 144 kts 145°
2026-04-29 06:29 -0.40928 -90.29823 1049 ft 142 kts 145°
2026-04-29 06:29 -0.41725 -90.29244 857 ft 142 kts 146°
2026-04-29 06:30 -0.42486 -90.28692 676 ft 141 kts 145°
2026-04-29 06:30 -0.44082 -90.27528 276 ft 140 kts 144°
2026-04-29 06:30 -0.44864 -90.26956 173 ft 133 kts 145°
2026-04-29 06:31 -0.45474 -90.26517 200 ft 83 kts 143°
2026-04-29 06:31 -0.45808 -90.26279 204 ft 41 kts 143°
2026-04-29 06:31 -0.45998 -90.26141 211 ft 31 kts 144°
2026-04-29 06:31 -0.46154 -90.26030 213 ft 21 kts 144°
2026-04-29 06:32 -0.46218 -90.25950 214 ft 10 kts 162°
2026-04-29 06:32 -0.46232 -90.25970 218 ft 3 kts 274°
2026-04-29 06:32 -0.46205 -90.25996 213 ft 8 kts 326°
2026-04-29 06:32 -0.46146 -90.26036 211 ft 12 kts 326°
2026-04-29 06:33 -0.46060 -90.26094 209 ft 17 kts 326°
2026-04-29 06:33 -0.45945 -90.26176 210 ft 23 kts 325°
2026-04-29 06:33 -0.45799 -90.26277 204 ft 27 kts 320°
2026-04-29 06:33 -0.45632 -90.26402 198 ft 33 kts 324°
2026-04-29 06:34 -0.45437 -90.26541 196 ft 36 kts 324°
2026-04-29 06:34 -0.45225 -90.26694 180 ft 38 kts 323°
2026-04-29 06:34 -0.45016 -90.26848 175 ft 37 kts 324°
2026-04-29 06:34 -0.44813 -90.26995 168 ft 32 kts 324°
2026-04-29 06:35 -0.44634 -90.27125 160 ft 33 kts 323°
2026-04-29 06:35 -0.44501 -90.27186 153 ft 15 kts 27°
2026-04-29 06:35 -0.44477 -90.27123 155 ft 4 kts 101°
2026-04-29 06:35 -0.44490 -90.27104 156 ft 2 kts 131°
2026-04-29 06:36 -0.44501 -90.27095 156 ft 4 kts 146°
2026-04-29 06:36 -0.44534 -90.27072 158 ft 7 kts 144°
2026-04-29 06:36 -0.44554 -90.27058 159 ft 2 kts 144°
2026-04-29 06:36 -0.44558 -90.27056 160 ft 0 kts 144°